Regional Weather Roundup
Issued by NWS

Home | Current Version | Previous Version | Graphics & Text | Print | Product List | Glossary On
Versions: 1 2 3 4 5 6 7 8 9 10 11 12 13 14 15 16 17 18 19 20 21 22 23 24 25 26 27 28 29 30 31 32 33 34 35 36 37 38 39 40 41 42 43 44 45 46 47 48 49 50
000
ASUS43 KIND 010859
RWRIN

WEATHER ROUNDUP FOR INDIANA
NATIONAL WEATHER SERVICE INDIANAPOLIS IN
500 AM EDT TUE SEP 01 2015

NOTE: "FAIR" INDICATES FEW OR NO CLOUDS BELOW 12,000 FEET WITH NO
SIGNIFICANT WEATHER AND/OR OBSTRUCTIONS TO VISIBILITY.

* - STATION DOES NOT REPORT WEATHER SUCH AS PRECIPITATION OR FOG.

+ - STATION NOT QUALITY CONTROLLED BY THE NATIONAL WEATHER SERVICE.
    USE DATA WITH CAUTION...ESPECIALLY DEWPOINT AND RELATIVE
    HUMIDITY OBSERVATIONS.

INZ001>003-010>013-019-020-011000-
NORTHWEST INDIANA

CITY           SKY/WX    TMP DP  RH WIND       PRES   REMARKS
KNOX *+        CLEAR     66  66 100 S5        30.07S
MONTICELLO +   CLEAR     70  70  99 S3        30.07S
RENSSELAER +   PTCLDY    66  66 100 CALM      30.08S FOG

$$

LMZ046-743>745-011000-
SOUTHERN LAKE MICHIGAN

STATION/POSITION TIME  TEMP    WIND        PRES    WAVE
                       AIR SEA DIR/SP/G            HT
                 (UTC) (F)     (DEG/KT/KT) (MB)    (FT)
BURNS HARBOR     0800   73     180/  8/ 11 1017.9S
MICHIGAN CITY    0800   74     160/ 10/ 12   N/A
5NW MICH CITY    0800   73 72  210/  6/  8   N/A     1

$$

INZ004-005-014>016-021>024-011000-
NORTH CENTRAL INDIANA

CITY           SKY/WX    TMP DP  RH WIND       PRES   REMARKS
GOSHEN         CLEAR     68  66  93 S3        30.08S FOG
SOUTH BEND     CLEAR     68  67  96 CALM      30.08S FOG

$$

INZ006>009-017-018-025>027-011000-
NORTHEAST INDIANA

CITY           SKY/WX    TMP DP  RH WIND       PRES   REMARKS
ANGOLA *+      CLOUDY    66  55  68 CALM      30.09R VSB 1/4
FORT WAYNE     CLEAR     69  66  90 W5        30.09S

$$

INZ028-029-035-036-043>045-051>053-011000-
WEST CENTRAL INDIANA

CITY           SKY/WX    TMP DP  RH WIND       PRES   REMARKS
CRAWFORDSVL +  PTCLDY    64  64 100 CALM      30.10S FOG
GREENCASTLE +  PTCLDY    66  63  88 CALM      30.11S FOG
LAFAYETTE      PTCLDY    69  67  93 CALM      30.08S
TERRE HAUTE    PTCLDY    66  65  96 CALM      30.10R FOG

$$

INZ030>032-037>040-046>048-054>057-064-065-011000-
CENTRAL INDIANA

CITY           SKY/WX    TMP DP  RH WIND       PRES   REMARKS
FRANKFORT +    CLEAR    N/A N/A N/A S3        30.11S HAZE
GREENWOOD *+   CLEAR     66  64  94 CALM      30.11S
INDIANAPOLIS   PTCLDY    71  67  87 SW3       30.10R
-EAGLE CREEK   CLEAR     69  67  93 S3        30.10S
KOKOMO *+      PTCLDY    66  48  52 S3        30.10R
MT COMFORT *+  PTCLDY    66 N/A N/A CALM      30.11S
SHELBYVILLE    FOG       67  64  90 E3        30.11R VSB 1/2

$$

INZ033-034-041-042-049-050-058-059-011000-
EAST CENTRAL INDIANA

CITY           SKY/WX    TMP DP  RH WIND       PRES   REMARKS
MUNCIE         CLEAR     68  67  96 SW6       30.11R

$$

INZ060-061-067>069-081>083-085>088-011000-
SOUTHWEST INDIANA

CITY           SKY/WX    TMP DP  RH WIND       PRES   REMARKS
EVANSVILLE     CLEAR     69  67  93 CALM      30.10S FOG
HUNTINGBURG *+ PTCLDY    66  63  88 SE5       30.11S

$$

INZ062-063-066-070>080-084-089>092-011000-
SOUTH CENTRAL AND SOUTHEAST INDIANA

CITY           SKY/WX    TMP DP  RH WIND       PRES   REMARKS
BLOOMINGTON    PTCLDY    66  64  93 CALM      30.12R
MADISON *+       N/A     64  63  94 CALM      30.14R
SEYMOUR +      FOG       63  63 100 CALM      30.11S VSB 1/2

$$



USA.gov is the U.S. government's official web portal to all federal, state and local government web resources and services.